Weather History for Chicago DuPage, IL

Change the Weather History Date:

Thursday, January 16, 2014

  Actual Average Record
Temperature  
Mean Temperature 26 °F 23 °F  
Max Temperature 34 °F 31 °F 46 °F (2006)
Min Temperature 17 °F 15 °F -22 °F (2009)
Degree Days  
Heating Degree Days 39 42  
Month to date heating degree days 772 670  
Since 1 July heating degree days 3558 3097  
Cooling Degree Days 0 0  
Month to date cooling degree days 0 0  
Year to date cooling degree days 0 0  
Moisture  
Dew Point 23 °F    
Average Humidity 79    
Maximum Humidity 93    
Minimum Humidity 60    
Precipitation  
Precipitation T in 0.04 in 0.21 in (1999)
Month to date precipitation 0.68 0.67  
Year to date precipitation 0.68 0.67  
Sea Level Pressure  
Sea Level Pressure 29.58 in    
Wind  
Wind Speed 15 mph (SW)    
Max Wind Speed 25 mph    
Max Gust Speed 36 mph    
Visibility 7 miles    
Events Snow    
T = Trace of Precipitation, MM = Missing Value Source: NWS Daily Summary

Daily Weather History Graph

Daily Weather History Graph

Search for Another Location

Airport:

Trip Planner

Search our weather history database for the weather conditions in past years. The results will help you decide how hot, cold, wet, or windy it might be!

Date:

Astronomy

Jan. 16, 2014 Rise Set
Actual Time 7:17 AM CST 4:48 PM CST
Civil Twilight 6:47 AM CST 5:18 PM CST
Nautical Twilight 6:12 AM CST 5:53 PM CST
Astronomical Twilight 5:39 AM CST 6:26 PM CST
Moon 5:41 PM CST (1/16) 7:09 AM CST (1/16)
Length of Visible Light 10h 31m
Length of Day
9h 30m
Full, 100% of the Moon is Illuminated
Jan 16
Full
Jan 23
Last Quarter
Jan 30
New
Feb 6
First Quarter
Feb 14
Full

Hourly Weather History & Observations

Time (CST) Temp. Windchill Dew Point Humidity Pressure Visibility Wind Dir Wind Speed Gust Speed Precip Events Conditions
12:52 AM 19.9 °F 4.8 °F 14.0 °F 78% 29.81 in 8.0 mi South 18.4 mph - 0.00 in Snow Light Snow
1:52 AM 21.0 °F 6.2 °F 15.1 °F 78% 29.78 in 10.0 mi South 18.4 mph 26.5 mph 0.00 in   Overcast
2:52 AM 21.9 °F 8.2 °F 16.0 °F 78% 29.74 in 10.0 mi South 16.1 mph 24.2 mph N/A   Overcast
3:31 AM 23.0 °F 10.1 °F 15.8 °F 74% 29.67 in 10.0 mi SSW 15.0 mph 26.5 mph N/A   Overcast
3:52 AM 24.1 °F 11.0 °F 16.0 °F 71% 29.70 in 10.0 mi SSW 16.1 mph - N/A   Overcast
4:52 AM 24.1 °F 11.5 °F 18.0 °F 77% 29.67 in 2.0 mi South 15.0 mph - 0.00 in Snow Light Snow
5:05 AM 24.8 °F 12.9 °F 17.6 °F 74% 29.63 in 5.0 mi South 13.8 mph - 0.00 in Snow Light Snow
5:52 AM 25.0 °F 12.6 °F 19.0 °F 78% 29.63 in 10.0 mi South 15.0 mph - 0.00 in   Overcast
6:38 AM 26.6 °F 14.7 °F 21.2 °F 80% 29.58 in 10.0 mi South 15.0 mph - N/A   Overcast
6:52 AM 26.1 °F 14.0 °F 21.0 °F 81% 29.62 in 10.0 mi SSW 15.0 mph - N/A   Overcast
7:52 AM 27.0 °F 14.7 °F 23.0 °F 85% 29.61 in 8.0 mi SSW 16.1 mph 24.2 mph N/A   Overcast
8:41 AM 28.4 °F 16.6 °F 24.8 °F 86% 29.57 in 8.0 mi South 16.1 mph 23.0 mph N/A   Overcast
8:52 AM 28.0 °F 16.1 °F 24.1 °F 85% 29.60 in 8.0 mi South 16.1 mph - N/A   Overcast
9:52 AM 28.9 °F 18.6 °F 25.0 °F 85% 29.59 in 8.0 mi South 12.7 mph 21.9 mph N/A   Overcast
10:13 AM 28.4 °F 17.0 °F 24.8 °F 86% 29.55 in 7.0 mi South 15.0 mph - N/A   Overcast
10:52 AM 30.0 °F 19.1 °F 26.1 °F 85% 29.57 in 8.0 mi SSW 15.0 mph 20.7 mph 0.00 in   Overcast
11:34 AM 32.0 °F 20.8 °F 26.6 °F 80% 29.52 in 9.0 mi SSW 17.3 mph 23.0 mph N/A   Overcast
11:52 AM 32.0 °F 21.6 °F 27.0 °F 82% 29.53 in 6.0 mi SSW 15.0 mph 23.0 mph 0.00 in Snow Light Snow
12:15 PM 32.0 °F 22.5 °F 26.6 °F 80% 29.49 in 2.0 mi SSW 12.7 mph - 0.00 in Snow Light Snow
12:34 PM 32.0 °F 22.1 °F 28.4 °F 87% 29.49 in 1.2 mi SSW 13.8 mph - 0.00 in Snow Light Snow
12:49 PM 33.8 °F 24.8 °F 28.4 °F 81% 29.48 in 3.0 mi SSW 12.7 mph - 0.00 in Snow Light Snow
12:50 PM 33.1 °F 23.9 °F 28.0 °F 82% 29.51 in 3.0 mi SSW 12.7 mph - 0.00 in Snow Light Snow
1:52 PM 34.0 °F 25.0 °F 28.0 °F 79% 29.49 in 9.0 mi SSW 12.7 mph - 0.00 in Snow Light Snow
2:21 PM 33.8 °F 23.9 °F 28.4 °F 81% 29.47 in 2.0 mi SW 15.0 mph - 0.00 in Snow Light Snow
2:29 PM 33.8 °F 23.9 °F 30.2 °F 87% 29.46 in 1.2 mi SW 15.0 mph - 0.00 in Snow Light Snow
2:49 PM 33.8 °F 23.9 °F 30.2 °F 87% 29.47 in 2.0 mi SW 15.0 mph - 0.00 in Snow Light Snow
2:50 PM 34.0 °F 24.6 °F 30.9 °F 89% 29.49 in 2.5 mi SW 13.8 mph - 0.00 in Snow Light Snow
3:10 PM 33.8 °F 24.8 °F 30.2 °F 87% 29.47 in 3.0 mi WSW 12.7 mph - 0.00 in Snow Light Snow
3:44 PM 33.8 °F 24.8 °F 32.0 °F 93% 29.48 in 6.0 mi SW 12.7 mph - 0.00 in Snow Light Snow
3:52 PM 34.0 °F 25.0 °F 32.0 °F 92% 29.51 in 8.0 mi SW 12.7 mph - 0.00 in   Overcast
4:21 PM 33.8 °F 23.9 °F 30.2 °F 87% 29.50 in 2.5 mi West 15.0 mph 24.2 mph 0.00 in Snow Light Snow
4:37 PM 32.0 °F 19.5 °F 28.4 °F 87% 29.52 in 1.5 mi West 21.9 mph 29.9 mph 0.00 in Snow Light Snow
4:48 PM 32.0 °F 20.1 °F 26.6 °F 80% 29.52 in 3.0 mi West 19.6 mph 28.8 mph 0.00 in Snow Light Snow
4:49 PM 32.0 °F 20.8 °F 26.6 °F 80% 29.52 in 3.0 mi West 17.3 mph 28.8 mph 0.00 in Snow Light Snow
4:52 PM 32.0 °F 20.1 °F 27.0 °F 82% 29.55 in 3.0 mi West 19.6 mph 28.8 mph 0.00 in Snow Light Snow
5:22 PM 30.2 °F 18.5 °F 21.2 °F 69% 29.55 in 10.0 mi West 17.3 mph 27.6 mph 0.00 in   Overcast
5:45 PM 30.2 °F 18.1 °F 21.2 °F 69% 29.57 in 10.0 mi West 18.4 mph 28.8 mph 0.00 in   Overcast
5:52 PM 30.0 °F 17.9 °F 21.9 °F 72% 29.60 in 10.0 mi West 18.4 mph 28.8 mph 0.00 in   Overcast
6:28 PM 28.4 °F 15.4 °F 19.4 °F 69% 29.59 in 10.0 mi West 19.6 mph 28.8 mph N/A   Overcast
6:52 PM 27.0 °F 13.9 °F 15.1 °F 61% 29.63 in 10.0 mi WNW 18.4 mph 27.6 mph N/A   Overcast
7:52 PM 23.0 °F 7.6 °F 10.9 °F 60% 29.66 in 10.0 mi West 21.9 mph 33.4 mph N/A   Overcast
8:52 PM 21.9 °F 8.7 °F 12.0 °F 66% 29.69 in 10.0 mi West 15.0 mph 20.7 mph N/A   Clear
9:52 PM 19.9 °F 8.6 °F 10.9 °F 68% 29.70 in 10.0 mi West 10.4 mph - N/A   Clear
10:52 PM 19.0 °F 6.1 °F 10.0 °F 68% 29.71 in 10.0 mi WNW 12.7 mph - N/A   Overcast
11:52 PM 17.1 °F 3.0 °F 9.0 °F 71% 29.73 in 10.0 mi West 13.8 mph - N/A   Overcast